Simultaneous Nadir Overpasses (SNOs) Predictions

Prediction of SNOs between FY3D and AQUA Satellite Orbit:

Table of predicted SNOs for the next 14.0 days since TLE Epoch: 2/5/2022
Index Date (FY3D) Time (FY3D) Lat,Lon (FY3D) SZA (FY3D ) Date (AQUA) Time (AQUA) Lat,Lon (AQUA) SZA (AQUA ) Distance(km) Time Diff (sec)
1 02/05/2022 06:45:16 -73.70,-106.87 90.29 02/05/2022 06:46:02 -73.70,-106.87 90.30 0.09 46
2 02/05/2022 07:35:20 71.55, 64.91 87.41 02/05/2022 07:34:49 71.56, 64.86 87.42 1.68 31
3 02/07/2022 22:12:24 73.65,-158.52 88.84 02/07/2022 22:13:00 73.65,-158.49 88.83 1.10 36
4 02/07/2022 23:02:23 -71.33, 13.55 93.65 02/07/2022 23:01:42 -71.33, 13.50 93.64 1.96 41
5 02/10/2022 13:39:24 -73.23, 150.69 92.47 02/10/2022 13:39:50 -73.24, 150.65 92.47 1.18 26
6 02/10/2022 14:29:40 71.68, -38.86 85.87 02/10/2022 14:28:48 71.67, -38.80 85.87 2.08 52
7 02/13/2022 05:06:34 73.23, 98.92 86.66 02/13/2022 05:06:49 73.23, 98.92 86.66 0.18 15
8 02/13/2022 05:56:32 -70.84, -89.15 95.88 02/13/2022 05:55:30 -70.85, -89.20 95.87 1.87 62
9 02/15/2022 19:49:07 78.56, 138.58 105.71 02/15/2022 19:50:19 79.24, 135.83 105.97 96.04 72
10 02/15/2022 20:33:37 -72.97, 47.73 94.53 02/15/2022 20:33:41 -72.97, 47.72 94.53 0.35 4
11 02/15/2022 21:23:34 70.41,-140.22 82.78 02/15/2022 21:22:21 70.42,-140.29 82.80 2.94 73
12 02/18/2022 11:10:29 -74.43,-174.85 93.85 02/18/2022 11:11:39 -74.43,-174.84 93.86 0.13 70



Historial Predications of SNOs between FY3D and AQUA
